Opa Locka, FL

10:20 AM EDT on September 26, 2016 (GMT -0400)
Opa Locka

Weather History for KOPF - July, 2013

Change the Weather History Date:

Sunday, July 14, 2013

  Actual Average Record
Temperature  
Mean Temperature 78 °F -  
Max Temperature 87 °F 90 °F 97 °F (1980)
Min Temperature 71 °F 74 °F 70 °F (1985)
Cooling Degree Days 14    
Growing Degree Days 28 (Base 50)    
Moisture  
Dew Point 73 °F    
Average Humidity 85    
Maximum Humidity 100    
Minimum Humidity 63    
Precipitation  
Precipitation 0.33 in - - ()
Sea Level Pressure  
Sea Level Pressure 30.06 in    
Wind  
Wind Speed 6 mph (ESE)    
Max Wind Speed 15 mph    
Max Gust Speed 20 mph    
Visibility 9 miles    
Events Rain    
Averages and records for this station are not official NWS values.
T = Trace of Precipitation, MM = Missing Value Source: NWS Daily Summary

Daily Weather History Graph

Daily Weather History Graph

Search for Another Location

Airport or City:

Trip Planner

Search our weather history database for the weather conditions in past years. The results will help you decide how hot, cold, wet, or windy it might be!

Date:

Astronomy

Jul. 14, 2013 Rise Set
Actual Time 6:38 AM EDT 8:15 PM EDT
Civil Twilight 6:12 AM EDT 8:40 PM EDT
Nautical Twilight 5:42 AM EDT 9:11 PM EDT
Astronomical Twilight 5:10 AM EDT 9:43 PM EDT
Moon 12:12 PM EDT (7/14) No Moon Set
Length of Visible Light 14h 27m
Length of Day
13h 36m
Waxing Crescent, 35% of the Moon is Illuminated
Jul 14
Waxing Crescent
Jul 15
First Quarter
Jul 22
Full
Jul 29
Last Quarter
Aug 6
New

Hourly Weather History & Observations

Time (EDT) Temp. Heat Index Dew Point Humidity Pressure Visibility Wind Dir Wind Speed Gust Speed Precip Events Conditions
12:53 AM 73.0 °F - 73.0 °F 100% 30.04 in 10.0 mi East 5.8 mph - N/A   Clear
1:53 AM 73.9 °F - 73.9 °F 100% 30.03 in 10.0 mi Calm Calm - N/A   Clear
2:53 AM 75.0 °F - 75.0 °F 100% 30.03 in 10.0 mi Calm Calm - N/A   Overcast
3:53 AM 75.9 °F - 75.0 °F 97% 30.02 in 10.0 mi ESE 4.6 mph - 0.00 in Rain Light Rain
4:46 AM 75.2 °F - 75.2 °F 100% 30.01 in 4.0 mi South 6.9 mph - 0.11 in Rain Heavy Rain
4:53 AM 75.9 °F - 75.9 °F 100% 30.02 in 5.0 mi SSE 4.6 mph - 0.14 in Rain Rain
5:13 AM 75.2 °F - 73.4 °F 94% 30.02 in 8.0 mi South 8.1 mph - 0.04 in Rain Rain
5:53 AM 75.0 °F - 75.0 °F 100% 30.01 in 10.0 mi South 4.6 mph - 0.04 in   Mostly Cloudy
6:53 AM 75.0 °F - 73.9 °F 96% 30.01 in 10.0 mi South 4.6 mph - N/A   Clear
7:53 AM 75.9 °F - 75.0 °F 97% 30.03 in 10.0 mi South 3.5 mph - N/A   Clear
8:53 AM 79.0 °F - 75.9 °F 90% 30.06 in 10.0 mi Calm Calm - N/A   Overcast
9:53 AM 82.9 °F 90.2 °F 75.0 °F 77% 30.06 in 10.0 mi SSE 8.1 mph - N/A   Partly Cloudy
10:53 AM 84.0 °F 88.4 °F 70.0 °F 63% 30.07 in 10.0 mi SSE 9.2 mph - N/A   Mostly Cloudy
11:53 AM 84.9 °F 90.1 °F 71.1 °F 63% 30.07 in 10.0 mi SE 9.2 mph - N/A   Clear
12:53 PM 84.9 °F 91.4 °F 73.0 °F 67% 30.09 in 10.0 mi SE 11.5 mph - N/A   Scattered Clouds
1:53 PM 86.0 °F 93.0 °F 73.0 °F 65% 30.07 in 10.0 mi SE 10.4 mph - N/A   Clear
2:53 PM 86.0 °F 93.0 °F 73.0 °F 65% 30.06 in 10.0 mi ESE 9.2 mph - N/A   Mostly Cloudy
3:53 PM 86.0 °F 93.8 °F 73.9 °F 67% 30.04 in 10.0 mi ESE 12.7 mph 19.6 mph N/A   Mostly Cloudy
4:04 PM 84.2 °F 90.9 °F 73.4 °F 70% 30.03 in 10.0 mi ESE 15.0 mph - N/A   Mostly Cloudy
4:53 PM 84.0 °F 91.2 °F 73.9 °F 72% 30.05 in 10.0 mi ESE 13.8 mph - N/A   Mostly Cloudy
5:53 PM 82.0 °F 87.9 °F 73.9 °F 76% 30.05 in 10.0 mi East 9.2 mph - N/A   Scattered Clouds
6:07 PM 82.4 °F 88.2 °F 73.4 °F 74% 30.06 in 10.0 mi ENE 8.1 mph - N/A   Mostly Cloudy
6:21 PM 82.4 °F 88.2 °F 73.4 °F 74% 30.05 in 10.0 mi NE 4.6 mph - N/A   Mostly Cloudy
6:33 PM 77.0 °F - 69.8 °F 78% 30.07 in 10.0 mi NNW 12.7 mph 19.6 mph N/A   Overcast
6:48 PM 75.2 °F - 69.8 °F 83% 30.07 in 10.0 mi North 13.8 mph - 0.00 in Rain Light Rain
6:53 PM 73.9 °F - 70.0 °F 87% 30.09 in 10.0 mi North 15.0 mph - 0.00 in Rain Light Rain
7:33 PM 71.6 °F - 71.6 °F 100% 30.10 in 5.0 mi NW 10.4 mph - 0.04 in Rain Light Rain
7:53 PM 72.0 °F - 72.0 °F 100% 30.10 in 5.0 mi NNW 9.2 mph - 0.08 in Rain Light Rain
8:53 PM 72.0 °F - 71.1 °F 97% 30.09 in 10.0 mi North 6.9 mph - 0.07 in Rain Light Rain
9:53 PM 73.0 °F - 71.1 °F 93% 30.10 in 10.0 mi Calm Calm - 0.00 in   Overcast
10:53 PM 73.0 °F - 71.1 °F 93% 30.08 in 10.0 mi Calm Calm - N/A   Scattered Clouds
11:53 PM 73.0 °F - 72.0 °F 96% 30.10 in 10.0 mi NE 4.6 mph - N/A   Scattered Clouds